Погода в Балаклаве

Россия / Республика Крым     44°30′05″N   33°36′00″E
темп.,
°C
ветер,
м/с
пор.,
м/с
влажн.,
%
обл.,
%
осадки,
мм/ч
давл.,
гПа
погр.,
м
1 декабря, ср
ср100:00+6ссз121678100 4.2 10031561
03:00+7сз11135697 4.3 10061659
06:00+8з10126594 0.7 10071388
09:00+9зюз111256100 1.0 10081838
12:00+9зюз131459100 0.3 10072121
15:00+9з121457100 0.5 10072183
18:00+9зсз11126096 0.8 10081528
21:00+8зсз896171 1.2 10111055
2 декабря, чт
чт200:00+9зсз675428 0.4 10121273
03:00+9зюз785663 0.5 10131307
06:00+10зюз67595 0.1 10141116
09:00+10ююз78656 0.1 1015891
12:00+11юз786711 0.0 10151216
15:00+11ююз897714 0.0 1014997
18:00+11ю1011735 0.0 1015708
21:00+11ююв10126998 0.0 1015609
3 декабря, пт
пт300:00+11ююв8117059 0.0 1014517
03:00+11юв8117479 0.0 1013491
06:00+11юв8117799 0.0 1013463
09:00+12ююв7107526 0.0 1013302
12:00+13ю1015690 0.0 1013785
15:00+13ю815735 0.0 1012657
18:00+13ююз91576100 0.0 1013537
21:00+13ю7138096 0.4 1014402
4 декабря, сб
сб400:00+13ю7128270 1.1 1014369
03:00+12ю51287100 2.7 1014344
06:00+12ююв3482100 0.3 101278
09:00+13ююв3377100 0.4 101350
12:00+13ююв4476100 0.0 1012169
15:00+12ю2283100 0.3 1010118
18:00+12вюв2287100 0.8 101095
21:00+12ююв5887100 1.1 1010375
5 декабря, вс
вс500:00+11ююз6995100 2.3 1010525
03:00+12ююз6990100 5.6 1010577
06:00+12ю5797100 0.5 1009522
09:00+11ю449171 0.8 1010373
12:00+12зюз348950 0.2 1011388
15:00+11сз669197 0.5 1012444
18:00+10с458894 0.0 1013423
21:00+10ссз118570 0.0 1014178